Regional Weather Roundup
Issued by NWS

Home | Current Version | Previous Version | Graphics & Text | Print | Product List | Glossary On
Versions: 1 2 3 4 5 6 7 8 9 10 11 12 13 14 15 16 17 18 19 20 21 22 23 24 25 26 27 28 29 30 31 32 33 34 35 36 37 38 39 40 41 42 43 44 45 46 47 48 49 50
000
ASUS43 KIND 300059
RWRIN

WEATHER ROUNDUP FOR INDIANA
NATIONAL WEATHER SERVICE INDIANAPOLIS IN
900 PM EDT FRI APR 29 2016

NOTE: "FAIR" INDICATES FEW OR NO CLOUDS BELOW 12,000 FEET WITH NO
SIGNIFICANT WEATHER AND/OR OBSTRUCTIONS TO VISIBILITY.

* - STATION DOES NOT REPORT WEATHER SUCH AS PRECIPITATION OR FOG.

+ - STATION NOT QUALITY CONTROLLED BY THE NATIONAL WEATHER SERVICE.
    USE DATA WITH CAUTION...ESPECIALLY DEWPOINT AND RELATIVE
    HUMIDITY OBSERVATIONS.

INZ001>003-010>013-019-020-300200-
NORTHWEST INDIANA

CITY           SKY/WX    TMP DP  RH WIND       PRES   REMARKS
GARY /AIRPORT/ CLOUDY    43  43 100 N7        30.15R
RENSSELAER +   CLOUDY    50  45  81 N8        30.12R

$$

LMZ046-743>745-300200-
SOUTHERN LAKE MICHIGAN

STATION/POSITION TIME  TEMP    WIND        PRES    WAVE
                       AIR SEA DIR/SP/G            HT
                 (UTC) (F)     (DEG/KT/KT) (MB)    (FT)
BURNS HARBOR     0000   42      10/  8/ 10 1020.7
MICHIGAN CITY    0000   42     360/  9/ 10   N/A

$$

INZ004-005-014>016-021>024-300200-
NORTH CENTRAL INDIANA

CITY           SKY/WX    TMP DP  RH WIND       PRES   REMARKS
ELKHART        CLOUDY    52  46  82 CALM      30.13R
GOSHEN         CLOUDY    51  46  83 CALM      30.12R
SOUTH BEND     CLOUDY    48  45  89 W5        30.14R

$$

INZ006>009-017-018-025>027-300200-
NORTHEAST INDIANA

CITY           SKY/WX    TMP DP  RH WIND       PRES   REMARKS
ANGOLA *+      CLOUDY    52  39  62 NE3       30.11R
FORT WAYNE     CLOUDY    53  45  74 CALM      30.12R

$$

INZ028-029-035-036-043>045-051>053-300200-
WEST CENTRAL INDIANA

CITY           SKY/WX    TMP DP  RH WIND       PRES   REMARKS
CRAWFORDSVL +  PTCLDY    54  49  84 NE7       30.08R
GREENCASTLE +  MOCLDY    57  52  82 N7        30.06S
LAFAYETTE      CLOUDY    51  45  79 NE7       30.10R
TERRE HAUTE    CLOUDY    62  50  64 NE6       30.04S

$$

INZ030>032-037>040-046>048-054>057-064-065-300200-
CENTRAL INDIANA

CITY           SKY/WX    TMP DP  RH WIND       PRES   REMARKS
COLUMBUS       CLEAR     61  55  82 N5        30.05R
INDIANAPOLIS   CLOUDY    59  47  64 N9        30.05R
-EAGLE CREEK   CLOUDY    58  48  69 N6        30.06R
KOKOMO *+      CLOUDY    54  45  71 N6        30.11R
SHELBYVILLE    CLOUDY    60  49  66 NE7       30.06R

$$

INZ033-034-041-042-049-050-058-059-300200-
EAST CENTRAL INDIANA

CITY           SKY/WX    TMP DP  RH WIND       PRES   REMARKS
MUNCIE         CLOUDY    54  47  77 NE10      30.09R

$$

INZ060-061-067>069-081>083-085>088-300200-
SOUTHWEST INDIANA

CITY           SKY/WX    TMP DP  RH WIND       PRES   REMARKS
EVANSVILLE     CLOUDY    63  53  70 NE7       30.00R
HUNTINGBURG *+ CLOUDY    63  54  72 N6        30.01S

$$

INZ062-063-066-070>080-084-089>092-300200-
SOUTH CENTRAL AND SOUTHEAST INDIANA

CITY           SKY/WX    TMP DP  RH WIND       PRES   REMARKS
BLOOMINGTON    CLOUDY    62  49  62 N7        30.04R
MADISON *+     CLOUDY    61  52  72 CALM      30.07R
SEYMOUR +      MOCLDY    64  52  63 NE3       30.05R

$$





USA.gov is the U.S. government's official web portal to all federal, state and local government web resources and services.